FW9216 Weather Reports


Display with metric or nautical units.
time (UTC)temp
F
wind
direction
speed
MPH
gust
MPH
rain 1hr
in
rain 24hr
in
rain mn
in
humidity
%
barometer
mb
20260503055105 47 278 0.0 0.0 0.00 0.00 0.00 84 1013.0
20260503054605 47 278 0.0 0.0 0.00 0.00 0.00 84 1013.0
20260503054105 48 278 0.0 0.0 0.00 0.00 0.00 83 1013.1
20260503053104 48 278 0.0 0.0 0.00 0.00 0.00 83 1013.0
20260503052105 49 278 0.0 0.0 0.00 0.00 0.00 81 1013.1
20260503051604 49 278 0.0 0.0 0.00 0.00 0.00 81 1013.2
20260503050604 50 278 0.0 0.0 0.00 0.00 0.00 79 1013.1
20260503045605 51 278 0.0 0.0 0.00 0.00 0.00 78 1013.0
20260503045104 51 278 0.0 0.0 0.00 0.00 0.00 76 1013.0
20260503043104 53 278 0.0 0.0 0.00 0.00 0.00 75 1013.0
20260503035104 57 278 0.0 0.0 0.00 0.00 0.00 65 1012.5
20260503033604 58 278 0.0 0.0 0.00 0.00 0.00 59 1012.4
20260503032604 59 278 0.0 0.0 0.00 0.00 0.00 57 1012.3
20260503030104 64 278 0.0 0.0 0.00 0.00 0.00 50 1011.9
20260503025105 66 278 0.0 1.0 0.00 0.00 0.00 48 1011.9
20260503024104 67 280 0.0 1.0 0.00 0.00 0.00 47 1011.9
20260503023605 68 294 0.0 1.0 0.00 0.00 0.00 47 1011.8
20260503022604 70 324 0.0 0.0 0.00 0.00 0.00 44 1011.8
20260503021105 75 326 0.0 0.0 0.00 0.00 0.00 38 1011.7
20260503015604 75 309 0.0 2.0 0.00 0.00 0.00 36 1011.7
20260503015104 75 308 0.0 1.0 0.00 0.00 0.00 36 1011.7
20260503014605 75 313 0.0 2.0 0.00 0.00 0.00 37 1011.6
20260503014104 75 310 0.0 2.0 0.00 0.00 0.00 36 1011.7
20260503013605 75 306 0.0 2.0 0.00 0.00 0.00 37 1011.7
20260503012105 76 322 1.0 2.0 0.00 0.00 0.00 34 1011.8
20260503011605 76 307 1.0 3.0 0.00 0.00 0.00 33 1011.9
20260503011104 77 269 1.0 3.0 0.00 0.00 0.00 31 1011.9
20260503010604 77 314 1.0 2.0 0.00 0.00 0.00 31 1012.0
20260503004604 77 320 1.0 6.0 0.00 0.00 0.00 29 1012.3
20260503003104 77 271 2.0 5.0 0.00 0.00 0.00 30 1012.2
20260502235604 78 292 2.0 7.0 0.00 0.00 0.00 30 1012.2
20260502235104 78 314 1.0 3.0 0.00 0.00 0.00 28 1012.2
20260502234104 79 66 1.0 3.0 0.00 0.00 0.00 28 1012.3
20260502233104 78 301 1.0 6.0 0.00 0.00 0.00 27 1012.4
20260502232105 78 35 2.0 5.0 0.00 0.00 0.00 26 1012.5
20260502231104 78 268 1.0 7.0 0.00 0.00 0.00 27 1012.6
20260502230604 77 353 2.0 7.0 0.00 0.00 0.00 29 1012.6
20260502225604 77 273 1.0 6.0 0.00 0.00 0.00 27 1012.7
20260502225104 78 302 2.0 6.0 0.00 0.00 0.00 28 1012.7
20260502224604 78 300 2.0 7.0 0.00 0.00 0.00 30 1012.8
20260502224104 78 285 3.0 8.0 0.00 0.00 0.00 28 1012.8
20260502223604 78 41 3.0 8.0 0.00 0.00 0.00 28 1012.9
20260502221104 77 241 2.0 7.0 0.00 0.00 0.00 27 1013.1
20260502215604 78 295 2.0 5.0 0.00 0.00 0.00 26 1013.2
20260502215104 77 241 2.0 6.0 0.00 0.00 0.00 26 1013.2
20260502213604 77 265 2.0 5.0 0.00 0.00 0.00 28 1013.4
20260502212604 77 113 1.0 5.0 0.00 0.00 0.00 30 1013.4
20260502211604 78 341 3.0 10.0 0.00 0.00 0.00 26 1013.5
20260502210604 77 318 3.0 5.0 0.00 0.00 0.00 26 1013.5
20260502204604 76 88 1.0 5.0 0.00 0.00 0.00 29 1013.6
20260502204104 76 79 2.0 6.0 0.00 0.00 0.00 28 1013.6
20260502203104 77 55 2.0 8.0 0.00 0.00 0.00 29 1013.6
20260502202104 76 231 0.0 7.0 0.00 0.00 0.00 30 1013.7
20260502201604 76 69 3.0 7.0 0.00 0.00 0.00 28 1013.8
20260502201104 76 58 3.0 7.0 0.00 0.00 0.00 31 1013.9
20260502200604 76 94 1.0 5.0 0.00 0.00 0.00 32 1013.9
20260502200105 76 264 2.0 5.0 0.00 0.00 0.00 29 1013.9
20260502195604 76 294 2.0 3.0 0.00 0.00 0.00 32 1014.0
20260502194604 77 24 2.0 3.0 0.00 0.00 0.00 33 1014.1
20260502193604 76 128 1.0 3.0 0.00 0.00 0.00 30 1014.2
20260502193104 76 308 2.0 3.0 0.00 0.00 0.00 31 1014.2
20260502192604 75 261 1.0 6.0 0.00 0.00 0.00 33 1014.2
20260502185604 75 113 2.0 3.0 0.00 0.00 0.00 33 1014.6
20260502184604 75 186 1.0 3.0 0.00 0.00 0.00 33 1014.7
20260502183603 75 82 1.0 5.0 0.00 0.00 0.00 39 1014.7
20260502182604 74 121 1.0 3.0 0.00 0.00 0.00 36 1014.7
20260502181104 74 109 3.0 5.0 0.00 0.00 0.00 32 1014.8
20260502164104 69 164 3.0 6.0 0.00 0.00 0.00 42 1015.0
20260502163604 69 193 2.0 8.0 0.00 0.00 0.00 45 1015.0
20260502163104 69 175 2.0 8.0 0.00 0.00 0.00 42 1015.0
20260502162104 68 166 1.0 8.0 0.00 0.00 0.00 43 1015.1
20260502160604 67 103 1.0 5.0 0.00 0.00 0.00 45 1015.2
20260502160105 67 103 1.0 7.0 0.00 0.00 0.00 47 1015.2
20260502152104 62 104 2.0 3.0 0.00 0.00 0.00 59 1015.3
20260502151604 61 79 0.0 3.0 0.00 0.00 0.00 60 1015.3
20260502150604 58 93 1.0 3.0 0.00 0.00 0.00 68 1015.3
20260502123604 39 350 0.0 0.0 0.00 0.00 0.00 90 1015.1
20260502123105 39 350 0.0 0.0 0.00 0.00 0.00 90 1015.1
20260502121603 40 350 0.0 0.0 0.00 0.00 0.00 90 1015.1
20260502121103 40 350 0.0 0.0 0.00 0.00 0.00 90 1015.1
20260502115604 40 350 0.0 0.0 0.00 0.00 0.00 90 1015.1
20260502113605 40 350 0.0 0.0 0.00 0.00 0.00 89 1014.9
20260502113105 41 350 0.0 0.0 0.00 0.00 0.00 89 1014.9
20260502111605 41 350 0.0 0.0 0.00 0.00 0.00 89 1014.9
20260502110105 42 350 0.0 0.0 0.00 0.00 0.00 89 1014.8
20260502105610 42 350 0.0 0.0 0.00 0.00 0.00 88 1014.9
20260502105105 42 350 0.0 0.0 0.00 0.00 0.00 89 1014.9
20260502103105 42 350 0.0 0.0 0.00 0.00 0.00 90 1014.9
20260502102105 42 350 0.0 0.0 0.00 0.00 0.00 90 1014.8
20260502100605 41 350 0.0 0.0 0.00 0.00 0.00 90 1014.9
20260502100106 41 350 0.0 0.0 0.00 0.00 0.00 90 1014.9
20260502090605 42 350 0.0 0.0 0.00 0.00 0.00 89 1015.1
20260502090105 43 350 0.0 0.0 0.00 0.00 0.00 89 1015.0
20260502064604 45 294 0.0 0.0 0.00 0.00 0.00 87 1015.5
20260502063604 45 294 0.0 0.0 0.00 0.00 0.00 87 1015.5
20260502062105 46 294 0.0 0.0 0.00 0.00 0.00 87 1015.5
20260502061605 46 294 0.0 0.0 0.00 0.00 0.00 87 1015.5